Overview Statistics Trail Chart Weather Telemetry Raw packets
 

This is the latest recevied weather packets stored in our database for station/object KC4GS-13. If no packets are shown the sender has not sent any weather packets the latest 10 day(s).

<< 80 81 82 83 84 85 86 >>
Time Temp. Humidity Pressure Rain* Wind** Luminosity Snow
1788037464 31.11° C 64% 1020.5 hPa 0 mm - 227 W/m² -
1788037164 31.67° C 66% 1020.4 hPa 0 mm - 252 W/m² -
1788036863 31.11° C 67% 1020.6 hPa 0 mm - 299 W/m² -
1788036560 31.11° C 67% 1020.6 hPa 0 mm - 205 W/m² -
1788036260 31.11° C 67% 1020.4 hPa 0 mm - 359 W/m² -
1788035956 31.11° C 68% 1020.5 hPa 0 mm - 288 W/m² -
1788035655 30.56° C 69% 1020.6 hPa 0 mm - 367 W/m² -
1788035351 30.56° C 69% 1021 hPa 0 mm - 179 W/m² -
1788035046 30.56° C 69% 1020.9 hPa 0 mm - 159 W/m² -
1788034742 30.56° C 69% 1021 hPa 0 mm - 167 W/m² -
1788034438 30.56° C 68% 1020.9 hPa 0 mm - 174 W/m² -
1788034134 31.11° C 67% 1021.1 hPa 0 mm - 181 W/m² -
1788033833 30.56° C 68% 1021.1 hPa 0 mm - 255 W/m² -
1788033527 30.56° C 69% 1021.2 hPa 0 mm - 254 W/m² -
1788033222 31.11° C 69% 1021.2 hPa 0 mm - 173 W/m² -
1788032918 31.11° C 69% 1021.3 hPa 0 mm - 203 W/m² -
1788032617 30.56° C 69% 1021.2 hPa 0 mm - 185 W/m² -
1788032313 30.56° C 69% 1021.3 hPa 0 mm - 178 W/m² -
1788032008 31.11° C 68% 1021.2 hPa 0 mm - 152 W/m² -
1788031704 31.11° C 67% 1021.1 hPa 0 mm - 146 W/m² -
1788031402 31.11° C 67% 1021.1 hPa 0 mm - 197 W/m² -
1788031099 31.67° C 66% 1021.3 hPa 0 mm - 216 W/m² -
1788030797 31.67° C 66% 1021.3 hPa 0 mm - 294 W/m² -
1788030509 31.67° C 66% 1021.4 hPa 0 mm - 411 W/m² -
1788030192 31.11° C 65% 1021.3 hPa 0 mm - 283 W/m² -

* Rain latest hour (hover to see other rain measurements)
** Current wind speed in m/s (hover to see current wind gust speed)